Showing default

LEMUR-2-LUCILLE-ROSE, 65403

Orbit data source: Space-Track

LEMUR-2-LUCILLE-ROSE, 65403 is an American payload satellite in SSO that was launched on Mon, 23 Jun 2025 UTC via an FALCON 9 launch vehicle from the Air Force Western Test Range (AFWTR). Payload-class satellites include a variety of spacecraft equipped with specific instruments for various scientific and technological missions. These include communications satellites like Starlink; space stations such as the ISS; scientific satellites like the Hubble; Earth observation satellites from companies like Planet Labs, Umbra, and HawkEye 360; GPS; miniature CubeSats for education and research; and military/defense satellites.

Loading next visibility...
Identifier
65403, 2025-135BV
Orbit
SSO
Country
Flag of USUS
Related business
Manufacturer
Spire/Glasgow
Mission
Operational Commercial Com/MetRO
Bus & Motor
CUBESAT 4U, Unknown motor
Mass
5 kg wet, 5 kg dry
Launch date (UTC)
2025-06-23 (8 months ago)
Launch vehicle
FALCON 9
Launch site
Air Force Western Test Range (AFWTR)
Object type
Payload
Rocket body
Debris
Shape & HBR
Box, 14.5 m
Radar Cross Section
0.045 m²

Expand to show TLE details & history
Last TLE update: 15 hours ago

TLE from 15 hours ago
0 LEMUR-2-LUCILLE-ROSE
1 65403U 25135BV  26062.31201071  .00014900  00000-0  12567-2 0  9992
2 65403  97.7601 178.8452 0010200 264.3770  95.6289 14.98213167 32777
Epoch: 2026-03-03T07:29Z
TLE epoch observation values (Epoch: 2026-03-03T07:29:17.725Z)
Latitude
-0.00003°
Longitude
-94.57153°
Altitude
576.17 km
Speed
7.572 km/s
True Right ascension
11h 55m 22s
True Declination
0° 00' 00"
Sunlit
Object was in full shadow at epoch
Visualization orbit readout
Latitude
Unknown
Longitude
Unknown
Altitude
Unknown
Speed
Unknown
Apparent Right ascension
Unknown
Apparent Declination
Unknown
Sunlit
N/A
Visualization observer readout
Local Sidereal Time
01:59:20
Azimuth
Unknown
Elevation
Unknown
Doppler factor
Unknown
Orbital elements
Apogee altitude
576.514 km
Perigee altitude
562.341 km
Semi-major axis
6,947.565 km
Eccentricity
0.00102
Inclination
97.7601°
RAAN
178.8452°
Arg. of periapsis
264.377°
True anomaly
95.74521°
Mean anomaly
95.6289°
Eccentric anomaly
95.68705°
Mean motion
3.74795 °/min
Orbital period
96.05 mins
BSTAR
0.0012567
Loading maneuver chart data...
Computing Atmospheric mass density...
Loading historical data...
Loading historical data...
Loading historical data...
Loading historical data...
Loading historical data...
Loading historical data...
Loading historical data...

Documentation

Showing up to 5 results
|